"TOA5","MOW","CPU:UNC_MeetingWaters","DataHourly"
"TIMESTAMP","SondeTempC","SpCond","DOSat","DOmg","pH","Turb","BattVolt_Min"
"TS","","","","","","",""
"","Smp","Smp","Smp","Smp","Smp","Smp","Min"
"2009-04-01 00:00:00",13.6499996185,0.0,96.5999984741,23.5,6.44000005722,11.6000003815,12.9399995804
"2009-04-01 01:00:00",13.220000267,0.0,96.5999984741,19.2000007629,6.51999998093,19.2000007629,12.9200000763
"2009-04-01 02:00:00",12.7399997711,0.0,96.1999969482,18.6000003815,6.53000020981,7.69999980927,12.8900003433
"2009-04-01 03:00:00",12.5699996948,0.0,96.1999969482,17.2000007629,6.55999994278,7.40000009537,12.8699998856
"2009-04-01 04:00:00",12.4099998474,0.0,93.5999984741,16.0,6.57999992371,8.0,12.8400001526
"2009-04-01 05:00:00",12.6199998856,0.0,97.0999984741,14.8000001907,6.59999990463,40.7999992371,12.8100004196
"2009-04-01 06:00:00",12.5200004578,0.0,95.4000015259,12.6000003815,6.63999986649,6.40000009537,12.779999733
"2009-04-01 07:00:00",12.5500001907,0.0,96.8000030518,10.8999996185,6.67000007629,6.69999980927,12.75
"2009-04-01 08:00:00",12.1599998474,0.0,97.0,10.0,6.67999982834,5.69999980927,12.720000267
"2009-04-01 09:00:00",11.75,0.0,95.5,8.80000019073,6.69999980927,6.19999980927,12.7100000381
"2009-04-01 10:00:00",11.3900003433,0.0,97.5,6.80000019073,6.73999977112,6.09999990463,12.6899995804
"2009-04-01 11:00:00",11.8800001144,0.0010000000475,98.1999969482,5.5,6.76000022888,5.09999990463,12.6899995804
"2009-04-01 12:00:00",12.1599998474,0.0010000000475,99.3000030518,3.59999990463,6.80000019073,5.59999990463,12.7100000381
"2009-04-01 13:00:00",12.6300001144,0.0010000000475,100.099998474,3.40000009537,6.80000019073,5.59999990463,12.7700004578
"2009-04-01 14:00:00",13.529999733,0.0,105.699996948,7.80000019073,6.71999979019,5.19999980927,12.8500003815
"2009-04-01 15:00:00",14.720000267,0.0,107.300003052,10.8999996185,6.67000007629,4.80000019073,13.6599998474
"2009-04-01 16:00:00",15.3999996185,0.0,108.400001526,12.0,6.65000009537,6.69999980927,14.0600004196
"2009-04-01 17:00:00",15.7600002289,0.0,108.0,12.6999998093,6.63999986649,6.19999980927,14.0799999237
"2009-04-01 18:00:00",16.1599998474,0.0,105.800003052,13.1000003815,6.63000011444,8.10000038147,14.1499996185
"2009-04-01 19:00:00",16.5599994659,0.0,106.0,13.5,6.63000011444,6.59999990463,14.1199998856
"2009-04-01 20:00:00",16.4400005341,0.0,103.099998474,14.1000003815,6.61999988556,7.19999980927,13.9399995804
"2009-04-01 21:00:00",16.2600002289,0.0,102.5,12.1999998093,6.65000009537,7.40000009537,13.1099996567
"2009-04-01 22:00:00",15.8500003815,0.0010000000475,98.3000030518,10.0,6.69000005722,6.80000019073,13.029999733
"2009-04-01 23:00:00",15.3100004196,0.0010000000475,96.5,8.80000019073,6.71000003815,6.69999980927,12.9499998093
"2009-04-02 00:00:00",15.029999733,0.0010000000475,92.5999984741,7.30000019073,6.73000001907,7.5,12.9300003052
"2009-04-02 01:00:00",14.3199996948,0.0010000000475,94.0,5.69999980927,6.76000022888,12.1999998093,12.9300003052
"2009-04-02 02:00:00",14.2600002289,0.0010000000475,95.6999969482,4.0,6.78999996185,5.5,12.9099998474
"2009-04-02 03:00:00",14.4399995804,0.0010000000475,92.1999969482,2.70000004768,6.80999994278,9.0,12.8800001144
"2009-04-02 04:00:00",14.3500003815,0.0010000000475,93.5,2.59999990463,6.82000017166,5.5,12.8500003815
"2009-04-02 05:00:00",14.4399995804,0.0010000000475,91.5999984741,2.20000004768,6.82000017166,10.3999996185,12.8299999237
"2009-04-02 06:00:00",14.3800001144,0.0010000000475,94.4000015259,2.09999990463,6.82999992371,5.59999990463,12.8000001907
"2009-04-02 07:00:00",14.2700004578,0.0010000000475,93.8000030518,2.20000004768,6.82000017166,4.59999990463,12.7700004578
"2009-04-02 08:00:00",14.0399999619,0.0010000000475,94.0,2.29999995232,6.82000017166,7.30000019073,12.7399997711
"2009-04-02 09:00:00",14.0900001526,0.00200000009499,94.5999984741,1.0,6.84000015259,9.80000019073,12.7299995422
"2009-04-02 10:00:00",14.1599998474,0.00200000009499,93.3000030518,0.5,6.84999990463,4.5,12.7100000381
"2009-04-02 11:00:00",14.1999998093,0.00200000009499,95.5,0.10000000149,6.86000013351,4.30000019073,12.720000267
"2009-04-02 12:00:00",14.4300003052,0.00200000009499,96.8000030518,-0.800000011921,6.88000011444,6.09999990463,12.720000267
"2009-04-02 13:00:00",14.5500001907,0.00200000009499,95.5999984741,-1.20000004768,6.88000011444,10.0,12.75
"2009-04-02 14:00:00",14.5799999237,0.00200000009499,97.1999969482,-0.800000011921,6.88000011444,5.09999990463,12.7299995422
"2009-04-02 15:00:00",14.8100004196,0.326999992132,103.300003052,-48.9000015259,7.73000001907,52.0999984741,12.7700004578
"2009-04-02 16:00:00",15.5399999619,0.0219999998808,92.4000015259,-50.5,7.76000022888,92.6999969482,13.4399995804
"2009-04-02 17:00:00",15.8199996948,0.00800000037998,82.6999969482,-50.7000007629,7.76000022888,52.7999992371,13.3800001144
"2009-04-02 18:00:00",15.9099998474,0.00800000037998,81.0,-44.2000007629,7.65000009537,66.8000030518,13.3699998856
"2009-04-02 19:00:00",16.0799999237,0.00700000021607,81.4000015259,-37.5,7.53000020981,185.399993896,13.2299995422
"2009-04-02 20:00:00",15.9600000381,0.00800000037998,82.1999969482,-47.7000007629,7.71000003815,224.100006104,13.1700000763
"2009-04-02 21:00:00",16.2900009155,0.0390000008047,84.9000015259,-52.5,7.78999996185,231.100006104,12.9899997711
"2009-04-02 22:00:00",16.4500007629,0.0939999967813,96.5,-48.0,7.71000003815,666.5,12.9600000381
"2009-04-02 23:00:00",16.5200004578,0.0920000001788,93.6999969482,-40.4000015259,7.57999992371,219.100006104,12.9399995804
"2009-04-03 00:00:00",16.2600002289,0.107000000775,88.4000015259,-34.5,7.46999979019,192.899993896,12.9200000763
"2009-04-03 01:00:00",16.0200004578,0.0769999995828,87.0999984741,-31.6000003815,7.42000007629,235.199996948,12.8900003433
"2009-04-03 02:00:00",15.8400001526,0.00600000005215,85.4000015259,-31.2999992371,7.42000007629,191.600006104,12.8699998856
"2009-04-03 03:00:00",15.6999998093,0.00600000005215,84.4000015259,-37.4000015259,7.53000020981,121.5,12.8599996567
"2009-04-03 04:00:00",15.5799999237,0.00700000021607,84.4000015259,-36.0,7.5,72.4000015259,12.8299999237
"2009-04-03 05:00:00",15.5100002289,0.00600000005215,83.4000015259,-42.4000015259,7.61000013351,47.2999992371,12.8000001907
"2009-04-03 06:00:00",15.4600000381,0.00600000005215,82.5,-32.9000015259,7.44999980927,37.7999992371,12.7700004578
"2009-04-03 07:00:00",15.4899997711,0.00600000005215,80.0,-25.7999992371,7.32000017166,29.2999992371,12.75
"2009-04-03 08:00:00",15.6599998474,0.00600000005215,74.6999969482,-19.1000003815,7.19999980927,26.5,12.7100000381
"2009-04-03 09:00:00",15.7100000381,0.00700000021607,79.0999984741,-42.0,7.61000013351,27.8999996185,12.720000267
"2009-04-03 10:00:00",16.5,0.0610000006855,98.1999969482,-44.9000015259,7.65999984741,1059.0,12.7100000381
"2009-04-03 11:00:00",16.1599998474,0.0879999995232,91.6999969482,-39.0999984741,7.55000019073,1048.0,12.6899995804
"2009-04-03 12:00:00",15.9499998093,0.134000003338,89.1999969482,-35.9000015259,7.5,960.0,12.9099998474
"2009-04-03 13:00:00",15.970000267,0.170000001788,89.6999969482,-35.0999984741,7.48999977112,795.400024414,13.25
"2009-04-03 14:00:00",16.4200000763,0.194000005722,90.9000015259,-40.7999992371,7.59000015259,337.299987793,14.0200004578
"2009-04-03 15:00:00",17.2199993134,0.140000000596,90.1999969482,-42.7000007629,7.61999988556,215.699996948,13.2100000381
"2009-04-03 16:00:00",18.0100002289,0.119999997318,91.4000015259,-44.4000015259,7.63999986649,275.600006104,13.2100000381
"2009-04-03 17:00:00",18.1599998474,0.0520000010729,89.6999969482,-44.4000015259,7.63999986649,178.699996948,13.220000267
"2009-04-03 18:00:00",18.2299995422,0.0109999999404,87.5999984741,-44.7000007629,7.65000009537,141.600006104,13.2700004578
"2009-04-03 19:00:00",18.9400005341,0.00899999961257,87.8000030518,-43.0,7.61999988556,111.300003052,13.220000267
"2009-04-03 20:00:00",17.6200008392,0.00499999988824,83.6999969482,-46.2000007629,7.67999982834,68.6999969482,13.1800003052
"2009-04-03 21:00:00",17.7999992371,0.0010000000475,83.5,-35.7999992371,7.48999977112,47.2999992371,13.779999733
"2009-04-03 22:00:00",16.9400005341,0.0,78.6999969482,-15.1999998093,7.13000011444,64.9000015259,13.029999733
"2009-04-03 23:00:00",15.75,0.0,78.1999969482,-0.699999988079,6.88000011444,50.5,12.9499998093
"2009-04-04 00:00:00",14.8299999237,0.0,75.4000015259,15.8000001907,6.57999992371,39.5,12.9300003052
"2009-04-04 01:00:00",13.9099998474,0.0,78.6999969482,16.3999996185,6.57000017166,30.7999992371,12.9099998474
"2009-04-04 02:00:00",13.4899997711,0.0,77.8000030518,21.6000003815,6.48000001907,25.2999992371,12.8800001144
"2009-04-04 03:00:00",12.8400001526,0.0,80.6999969482,23.5,6.44000005722,22.8999996185,12.8599996567
"2009-04-04 04:00:00",12.4499998093,0.0,81.8000030518,20.6000003815,6.48999977112,20.7000007629,12.8400001526
"2009-04-04 05:00:00",11.2700004578,0.0,83.1999969482,17.1000003815,6.55000019073,18.2999992371,12.8100004196
"2009-04-04 06:00:00",10.8599996567,0.0,84.5,15.5,6.57999992371,15.3000001907,12.779999733
"2009-04-04 07:00:00",10.3000001907,0.0,85.0,15.8999996185,6.57000017166,14.8000001907,12.75
"2009-04-04 08:00:00",9.78999996185,0.0010000000475,87.0,14.8000001907,6.59000015259,14.5,12.7299995422
"2009-04-04 09:00:00",9.19999980927,0.0010000000475,87.5,14.1000003815,6.61000013351,13.6000003815,12.6999998093
"2009-04-04 10:00:00",8.72000026703,0.0010000000475,87.3000030518,13.1000003815,6.61999988556,12.8000001907,12.6700000763
"2009-04-04 11:00:00",8.86999988556,0.0010000000475,88.6999969482,11.8000001907,6.65000009537,12.6000003815,12.6800003052
"2009-04-04 12:00:00",10.25,0.0,89.4000015259,14.3999996185,6.59999990463,14.6999998093,12.7600002289
"2009-04-04 13:00:00",11.8999996185,0.0,93.8000030518,30.2999992371,6.32000017166,11.3999996185,13.4099998474
"2009-04-04 14:00:00",13.7399997711,0.0,96.8000030518,34.9000015259,6.23999977112,10.3999996185,13.3599996567
"2009-04-04 15:00:00",16.7099990845,0.0,94.9000015259,44.7000007629,6.07999992371,9.80000019073,13.3199996948
"2009-04-04 16:00:00",18.9899997711,0.0,97.3000030518,53.5,5.92999982834,10.3000001907,13.3000001907
"2009-04-04 17:00:00",21.6499996185,0.0,94.0999984741,60.5999984741,5.82000017166,10.3999996185,13.3000001907
"2009-04-04 18:00:00",23.0300006866,0.0,92.1999969482,77.5999984741,5.53000020981,10.3999996185,13.2600002289
"2009-04-04 19:00:00",23.9200000763,0.0,90.4000015259,74.1999969482,5.59000015259,13.1999998093,13.2100000381
"2009-04-04 20:00:00",19.3199996948,0.0,91.0999984741,64.6999969482,5.73000001907,9.0,13.1800003052
"2009-04-04 21:00:00",18.5400009155,0.0,89.5,60.4000015259,5.80999994278,8.80000019073,13.279999733
"2009-04-04 22:00:00",17.6299991608,0.0,86.5,51.2000007629,5.96999979019,9.30000019073,13.1099996567
"2009-04-04 23:00:00",15.6099996567,0.0,86.4000015259,37.5,6.19999980927,15.3000001907,12.9799995422
"2009-04-05 00:00:00",14.5200004578,0.0,85.4000015259,29.7999992371,6.32999992371,8.10000038147,12.9499998093
"2009-04-05 01:00:00",13.4300003052,0.0,86.6999969482,34.4000015259,6.25,8.39999961853,12.9200000763
"2009-04-05 02:00:00",12.6999998093,0.0,88.4000015259,34.7999992371,6.23999977112,9.19999980927,12.8800001144
"2009-04-05 03:00:00",12.1400003433,0.0,87.0,34.4000015259,6.25,8.60000038147,12.8599996567
"2009-04-05 04:00:00",11.4300003052,0.0,90.4000015259,32.5999984741,6.28000020981,7.90000009537,12.8299999237
"2009-04-05 05:00:00",10.9799995422,0.0,90.4000015259,29.2000007629,6.34000015259,9.69999980927,12.8000001907
"2009-04-05 06:00:00",10.1199998856,0.0,91.5,28.0,6.36000013351,7.0,12.7600002289
"2009-04-05 07:00:00",9.52000045776,0.0,90.5999984741,26.2999992371,6.38999986649,6.69999980927,12.7299995422
"2009-04-05 08:00:00",8.88000011444,0.0010000000475,93.5999984741,22.5,6.44999980927,6.5,12.6999998093
"2009-04-05 09:00:00",8.43999958038,0.0010000000475,92.9000015259,19.3999996185,6.51000022888,9.39999961853,12.6800003052
"2009-04-05 10:00:00",8.15999984741,0.0010000000475,94.5,18.2000007629,6.53000020981,8.60000038147,12.6599998474
"2009-04-05 11:00:00",8.52000045776,0.0010000000475,96.0999984741,17.2000007629,6.55000019073,8.10000038147,12.6599998474
"2009-04-05 12:00:00",10.2299995422,0.0010000000475,94.9000015259,15.6999998093,6.57999992371,6.80000019073,12.779999733
"2009-04-05 13:00:00",12.7299995422,0.0,100.0,29.1000003815,6.34000015259,7.5,13.4899997711
"2009-04-05 14:00:00",15.9499998093,0.0,100.0,43.2999992371,6.09999990463,7.0,13.3000001907
"2009-04-05 15:00:00",19.1399993896,0.0,106.599998474,54.2000007629,5.92000007629,6.40000009537,13.2100000381
"2009-04-05 16:00:00",21.7800006866,0.0,103.300003052,57.0999984741,5.88000011444,6.30000019073,13.1800003052
"2009-04-05 17:00:00",23.0200004578,0.0,105.900001526,62.9000015259,5.78000020981,7.19999980927,13.1499996185
"2009-04-05 18:00:00",24.5499992371,0.0,105.5,65.0,5.75,6.59999990463,13.1300001144
"2009-04-05 19:00:00",23.7000007629,0.0,90.3000030518,64.5,5.76000022888,5.80000019073,13.1000003815
"2009-04-05 20:00:00",22.2900009155,0.0,90.0,63.5,5.76999998093,9.89999961853,13.1000003815
"2009-04-05 21:00:00",21.1599998474,0.0,85.0,62.5999984741,5.78000020981,6.5,13.1300001144
"2009-04-05 22:00:00",20.4500007629,0.0,80.4000015259,61.4000015259,5.80000019073,6.09999990463,13.0600004196
"2009-04-05 23:00:00",18.9300003052,0.0,80.0999984741,58.9000015259,5.82999992371,6.80000019073,12.9799995422
"2009-04-06 00:00:00",18.3600006104,0.0,76.4000015259,53.7000007629,5.92000007629,6.30000019073,12.9499998093
"2009-04-06 01:00:00",17.75,0.0,79.6999969482,51.2000007629,5.96000003815,6.0,12.9200000763
"2009-04-06 02:00:00",17.4799995422,0.0,79.5999984741,48.7999992371,6.01000022888,5.69999980927,12.8999996185
"2009-04-06 03:00:00",16.8999996185,0.0,75.0999984741,43.0999984741,6.09999990463,6.5,12.8599996567
"2009-04-06 04:00:00",16.3299999237,0.0,77.5,42.7999992371,6.11000013351,15.8999996185,12.8299999237
"2009-04-06 05:00:00",16.0200004578,0.0,79.9000015259,41.0999984741,6.13999986649,5.5,12.8000001907
"2009-04-06 06:00:00",16.0900001526,0.0,78.3000030518,40.5,6.15000009537,7.0,12.7700004578
"2009-04-06 07:00:00",16.0799999237,0.0,80.4000015259,39.4000015259,6.17000007629,6.19999980927,12.75
"2009-04-06 08:00:00",16.3400001526,0.0,81.3000030518,37.7999992371,6.19999980927,5.0,12.7399997711
"2009-04-06 09:00:00",16.4799995422,0.0,78.6999969482,35.5999984741,6.23999977112,12.1999998093,12.7299995422
"2009-04-06 10:00:00",16.5,0.0,82.0999984741,34.0,6.26000022888,6.5,12.720000267
"2009-04-06 11:00:00",16.2099990845,0.0010000000475,82.0,29.7999992371,6.34000015259,5.0,12.7100000381
"2009-04-06 12:00:00",16.5499992371,0.0010000000475,84.4000015259,26.2000007629,6.40000009537,5.40000009537,12.720000267
"2009-04-06 13:00:00",16.1900005341,0.00899999961257,97.0,-18.0,7.17999982834,14.6000003815,13.0399999619
"2009-04-06 14:00:00",17.4899997711,0.138999998569,71.6999969482,-30.5,7.40000009537,833.0,13.1800003052
"2009-04-06 15:00:00",17.7800006866,0.105999998748,17.3999996185,-24.2000007629,7.28999996185,429.399993896,13.3299999237
"2009-04-06 16:00:00",18.1800003052,0.0230000000447,32.0999984741,-19.3999996185,7.21000003815,346.799987793,13.3999996185
"2009-04-06 17:00:00",17.4899997711,0.00600000005215,25.6000003815,-21.3999996185,7.23999977112,185.699996948,13.3199996948
"2009-04-06 18:00:00",16.0300006866,0.00499999988824,22.1000003815,-14.1999998093,7.11999988556,131.399993896,13.3199996948
"2009-04-06 19:00:00",16.4599990845,0.00400000018999,30.1000003815,-3.0,6.92000007629,148.100006104,13.3199996948
"2009-04-06 20:00:00",15.6199998856,0.0010000000475,32.0,14.3999996185,6.61000013351,72.8000030518,13.3299999237
"2009-04-06 21:00:00",14.7399997711,0.0,34.7999992371,31.7000007629,6.30000019073,168.300003052,13.3900003433
"2009-04-06 22:00:00",14.0500001907,0.0,25.5,25.0,6.42000007629,41.2999992371,13.0
"2009-04-06 23:00:00",13.0699996948,0.0,17.3999996185,38.4000015259,6.17999982834,35.2999992371,12.9300003052
"2009-04-07 00:00:00",12.1499996185,0.0,17.6000003815,42.0999984741,6.11000013351,22.3999996185,12.9099998474
"2009-04-07 01:00:00",11.029999733,0.0,15.8999996185,41.2999992371,6.11999988556,22.7000007629,12.8800001144
"2009-04-07 02:00:00",10.0600004196,0.0,27.1000003815,40.9000015259,6.11999988556,19.6000003815,12.8199996948
"2009-04-07 03:00:00",9.65999984741,0.0,35.7999992371,40.0,6.13999986649,18.7999992371,12.8199996948
"2009-04-07 04:00:00",9.10000038147,0.0,28.7999992371,37.5999984741,6.17999982834,24.8999996185,12.8100004196
"2009-04-07 05:00:00",8.46000003815,0.0,31.2000007629,36.9000015259,6.19000005722,12.1999998093,12.779999733
"2009-04-07 06:00:00",8.32999992371,0.0,28.2000007629,35.0999984741,6.21999979019,10.6000003815,12.7399997711
"2009-04-07 07:00:00",8.27000045776,0.0,26.2000007629,8.80000019073,6.69999980927,9.0,12.7100000381
"2009-04-07 08:00:00",7.82999992371,0.0,21.8999996185,9.30000019073,6.69000005722,6.80000019073,12.6599998474
"2009-04-07 09:00:00",7.73000001907,0.0,24.7999992371,12.6999998093,6.63000011444,6.80000019073,12.6499996185
"2009-04-07 10:00:00",7.53000020981,0.0,19.7000007629,9.80000019073,6.67999982834,5.90000009537,12.6499996185
"2009-04-07 11:00:00",7.42000007629,0.0,16.2000007629,3.09999990463,6.80000019073,6.69999980927,12.6599998474
"2009-04-07 12:00:00",7.44000005722,0.0,26.7000007629,11.0,6.65999984741,5.69999980927,13.1000003815
"2009-04-07 13:00:00",7.75,0.0,36.0,30.0,6.30999994278,7.40000009537,13.7399997711
"2009-04-07 14:00:00",8.43999958038,0.0,38.7000007629,36.0999984741,6.19999980927,13.1999998093,14.3299999237
"2009-04-07 15:00:00",9.19999980927,0.0,42.5999984741,38.5999984741,6.15999984741,5.90000009537,14.3199996948
"2009-04-07 16:00:00",10.3500003815,0.0,34.5,39.7000007629,6.13999986649,5.30000019073,13.5699996948
"2009-04-07 17:00:00",11.0500001907,0.0,34.2000007629,40.2000007629,6.13999986649,6.09999990463,13.5699996948
"2009-04-07 18:00:00",10.9099998474,0.0,32.0999984741,41.2000007629,6.11999988556,6.90000009537,13.5500001907
"2009-04-07 19:00:00",10.0900001526,0.0,36.0999984741,40.2000007629,6.13999986649,8.39999961853,13.5600004196
"2009-04-07 20:00:00",9.97999954224,0.0,19.7999992371,39.7000007629,6.13999986649,6.59999990463,13.5699996948
"2009-04-07 21:00:00",9.77000045776,0.0,24.0,38.7999992371,6.15999984741,38.7999992371,13.6000003815
"2009-04-07 22:00:00",9.07999992371,0.0,25.7000007629,38.2000007629,6.17000007629,12.3999996185,13.1000003815
"2009-04-07 23:00:00",8.60000038147,0.0,27.8999996185,38.5,6.15999984741,12.6999998093,12.9499998093
"2009-04-08 00:00:00",7.90999984741,0.0,26.5,41.4000015259,6.11000013351,9.80000019073,12.9200000763
"2009-04-08 01:00:00",8.0,0.0,25.2000007629,38.5999984741,6.15999984741,8.60000038147,12.8900003433
"2009-04-08 02:00:00",7.36000013351,0.0,34.4000015259,36.9000015259,6.19000005722,44.0999984741,12.8699998856
"2009-04-08 03:00:00",6.80999994278,0.0,30.5,36.0,6.19999980927,9.5,12.8400001526
"2009-04-08 04:00:00",6.07999992371,0.0,25.3999996185,36.2999992371,6.19000005722,6.80000019073,12.8199996948
"2009-04-08 05:00:00",5.78999996185,0.0,21.3999996185,31.7000007629,6.28000020981,9.89999961853,12.7899999619
"2009-04-08 06:00:00",5.17999982834,0.0,37.5,31.8999996185,6.26999998093,110.0,12.7399997711
"2009-04-08 07:00:00",4.86999988556,0.0,45.2000007629,29.8999996185,6.30999994278,6.90000009537,12.6999998093
"2009-04-08 08:00:00",5.01000022888,0.0,43.9000015259,28.7000007629,6.32999992371,23.2999992371,12.6599998474
"2009-04-08 09:00:00",4.75,0.0,49.0,29.5,6.32000017166,5.59999990463,12.6300001144
"2009-04-08 10:00:00",4.73000001907,0.0,45.0,28.6000003815,6.32999992371,55.9000015259,12.6199998856
"2009-04-08 11:00:00",4.80999994278,0.0,44.7000007629,27.1000003815,6.36000013351,4.90000009537,12.6199998856
"2009-04-08 12:00:00",6.51999998093,0.0,62.2999992371,30.8999996185,6.28999996185,7.5,12.7299995422
"2009-04-08 13:00:00",8.52000045776,0.0,69.3000030518,38.0,6.17000007629,34.5,13.8999996185
"2009-04-08 14:00:00",10.1599998474,0.0,66.6999969482,42.5,6.09000015259,3.79999995232,14.2100000381
"2009-04-08 15:00:00",10.9399995804,0.0,68.1999969482,44.0,6.07000017166,4.09999990463,13.4600000381
"2009-04-08 16:00:00",12.6000003815,0.0,64.6999969482,45.9000015259,6.03999996185,4.09999990463,13.4600000381
"2009-04-08 17:00:00",13.3599996567,0.0,70.8000030518,46.7999992371,6.03000020981,4.90000009537,13.470000267
"2009-04-08 18:00:00",15.9399995804,0.0,74.0999984741,50.2000007629,5.98000001907,28.0,13.4300003052
"2009-04-08 19:00:00",14.9300003052,0.0,58.9000015259,49.2999992371,5.98999977112,10.1999998093,13.3999996185
"2009-04-08 20:00:00",13.279999733,0.0,68.0,48.0,6.01000022888,1575.0,13.4099998474
"2009-04-08 21:00:00",12.7899999619,0.0,69.6999969482,47.7000007629,6.01000022888,125.900001526,13.2700004578
"2009-04-08 22:00:00",12.5500001907,0.0,63.0,47.4000015259,6.01000022888,8.0,13.0900001526
"2009-04-08 23:00:00",10.9399995804,0.0,50.5,43.5999984741,6.07999992371,1118.0,12.970000267
"2009-04-09 00:00:00",9.25,0.0,54.5,41.2000007629,6.11000013351,1523.0,12.9399995804
"2009-04-09 01:00:00",8.96000003815,0.0,56.5999984741,40.5,6.13000011444,36.2000007629,12.8999996185
"2009-04-09 02:00:00",9.07999992371,0.0,49.9000015259,39.5,6.13999986649,15.0,12.8800001144
"2009-04-09 03:00:00",8.64999961853,0.0,64.1999969482,38.0,6.17000007629,2.90000009537,12.8500003815
"2009-04-09 04:00:00",9.18000030518,0.0,61.0,36.0999984741,6.21000003815,133.100006104,12.8299999237
"2009-04-09 05:00:00",9.07999992371,0.0,56.4000015259,35.0999984741,6.21999979019,6.0,12.8000001907
"2009-04-09 06:00:00",8.80000019073,0.0,61.0,34.5,6.23000001907,12.3000001907,12.7700004578
"2009-04-09 07:00:00",8.38000011444,0.0,63.5,33.5999984741,6.25,3.0,12.7299995422
"2009-04-09 08:00:00",7.90000009537,0.0,70.5,31.2999992371,6.28999996185,4.40000009537,12.6899995804
"2009-04-09 09:00:00",7.63000011444,0.0010000000475,72.9000015259,28.3999996185,6.34000015259,5.09999990463,12.6599998474
"2009-04-09 10:00:00",7.15999984741,0.0010000000475,68.5999984741,27.5,6.36000013351,25.2999992371,12.6400003433
"2009-04-09 11:00:00",7.19000005722,0.0010000000475,68.9000015259,26.7000007629,6.36999988556,11.6999998093,12.6499996185
"2009-04-09 12:00:00",8.71000003815,0.0010000000475,75.5999984741,25.2999992371,6.40000009537,6.0,12.8199996948
"2009-04-09 13:00:00",10.5799999237,0.0,83.5999984741,35.9000015259,6.21000003815,4.0,13.8000001907
"2009-04-09 14:00:00",12.5200004578,0.0,84.8000030518,41.5999984741,6.11999988556,77.0999984741,13.4099998474
"2009-04-09 15:00:00",15.4099998474,0.0,85.8000030518,45.7000007629,6.05000019073,9.0,13.3599996567
"2009-04-09 16:00:00",17.2399997711,0.0,84.6999969482,48.7999992371,6.01000022888,27.7000007629,13.3199996948
"2009-04-09 17:00:00",18.6599998474,0.0,92.5999984741,51.2999992371,5.96999979019,3.90000009537,13.3199996948
"2009-04-09 18:00:00",19.9699993134,0.0,87.1999969482,52.2000007629,5.94999980927,10.1999998093,13.3000001907
"2009-04-09 19:00:00",20.6100006104,0.0,89.1999969482,54.0,5.92999982834,1.60000002384,13.2700004578
"2009-04-09 20:00:00",17.0599994659,0.0,74.9000015259,49.9000015259,5.98000001907,22.8999996185,13.2700004578
"2009-04-09 21:00:00",16.6200008392,0.0,93.8000030518,56.5999984741,5.86999988556,1.89999997616,14.0699996948
"2009-04-09 22:00:00",15.75,0.0,90.5,53.0,5.92999982834,3.09999990463,13.0799999237
"2009-04-09 23:00:00",13.529999733,0.0,102.099998474,47.7999992371,6.01000022888,1.39999997616,12.9799995422
"2009-04-10 00:00:00",12.4499998093,0.0,73.8000030518,40.0999984741,6.13999986649,25.8999996185,12.9399995804
"2009-04-10 01:00:00",11.3299999237,0.0,103.900001526,40.4000015259,6.13999986649,2.70000004768,12.9099998474
"2009-04-10 02:00:00",10.8699998856,0.0,66.9000015259,39.7999992371,6.15000009537,6.09999990463,12.8900003433
"2009-04-10 03:00:00",10.1999998093,0.0,69.3000030518,38.2999992371,6.17000007629,6.69999980927,12.8500003815